Regional Weather Roundup
Issued by NWS Sterling, VA

Home | Current Version | Previous Version | Graphics & Text | Print | Product List | Glossary On
Versions: 1 2 3 4 5 6 7 8 9 10 11 12 13 14 15 16 17 18 19 20 21 22 23 24 25 26 27 28
000
ASUS41 KLWX 181310
RWRLWX

REGIONAL WEATHER ROUNDUP
NATIONAL WEATHER SERVICE BALTIMORE MD/WASHINGTON DC
900 AM EDT FRI APR 18 2014

Note: "FAIR" indicates few or no clouds below 12,000 feet
with no significant weather and/or obstructions to visibility.
 TC=TEMPERATURE CELSIUS

 * =Non NWS site. Station does not report precipitation (e.g. rain,
    snow, etc.), thunder, or fog.

DCZ001-MDZ009-015-VAZ040>042-051-053>054-181400-
WASHINGTON METRO

CITY           SKY/WX    TMP DP  RH WIND       PRES   REMARKS
WASHINGTON NAT CLOUDY    43  32  65 NE6       30.51S
DULLES         CLOUDY    38  31  76 CALM      30.49F
ANDREWS AFB    CLOUDY    40  31  69 E5        30.50R
FT BELVOIR     PTSUNNY   41  32  70 VRB1      30.52R
QUANTICO       CLOUDY    42  32  67 E9        30.52R
COLLEGE PARK*  CLOUDY    43  32  65 E3        30.51S
LEESBURG*      CLOUDY    39  34  81 NE5       30.50S
MANASSAS*      SUNNY     39  36  87 CALM      30.50S
GAITHERSBURG*  CLOUDY    37  28  70 E3        30.51F

$$

MDZ006>007-011-014-181400-
BALTIMORE METRO

CITY           SKY/WX    TMP DP  RH WIND       PRES   REMARKS
BWI AIRPORT    PTSUNNY   41  31  67 E7        30.50S
MD SCIENCE CTR   N/A     41  31  67 MISG      30.52S
MARTIN STATE   PTSUNNY   43  34  70 NE5       30.53S
ANNAPOLIS      CLOUDY    41  33  73 E8        30.51S
FORT MEADE*    CLOUDY    41  32  70 E6        30.53S

$$

MDZ012-015-019>023-181400-
MARYLAND EASTERN SHORE

CITY           SKY/WX    TMP DP  RH WIND       PRES   REMARKS
OCEAN CITY     CLOUDY    44  35  70 NE12      30.49S
SALISBURY      CLOUDY    45  35  68 NE12      30.48F
BAY BRIDGE AP* PTSUNNY   41  32  70 NE6       30.51
CAMBRIDGE*     PTSUNNY   43  32  65 E6        30.49S
EASTON*        CLOUDY    43  36  75 E7        30.53F

$$

MDZ017>025-181400-
SOUTHERN MARYLAND

CITY           SKY/WX    TMP DP  RH WIND       PRES   REMARKS
PATUXENT RIVER CLOUDY    42  32  67 NE8       30.50R
ST INIGOES     CLOUDY    42  33  70 N9        30.49S
LEONARDTOWN*   CLOUDY    41  32  70 CALM      30.51R

$$

MDZ003>005-181400-
NORTH CENTRAL MARYLAND

CITY           SKY/WX    TMP DP  RH WIND       PRES   REMARKS
FREDERICK*     SUNNY     39  34  81 NE3       30.53F
HAGERSTOWN APT CLOUDY    37  30  75 E3        30.47F
WESTMINSTER*   CLOUDY    37  30  75 E5        30.47F

$$

MDZ501>502-181400-
WESTERN MARYLAND

CITY           SKY/WX    TMP DP  RH WIND       PRES   REMARKS
OAKLAND*       PTSUNNY   37  30  75 SE9       30.34R
CUMBERLAND*    PTSUNNY   41  32  70 CALM      30.49R

$$

VAZ025>031-181400-
SHENANDOAH VALLEY

CITY           SKY/WX    TMP DP  RH WIND       PRES   REMARKS
WINCHESTER*    PTSUNNY   37  34  87 E3        30.46S
STAUNTON*      CLOUDY    38  33  83 CALM      30.46R

$$

WVZ021-048>050-054>055-181400-
EASTERN WEST VIRGINIA PANHANDLE

CITY           SKY/WX    TMP DP  RH WIND       PRES   REMARKS
MARTINSBURG    PTSUNNY   39  31  72 NE5       30.47F
PETERSBURG*    CLOUDY    43  38  81 CALM      30.45R

$$

VAZ036>039-050-181400-
CENTRAL FOOTHILLS

CITY           SKY/WX    TMP DP  RH WIND       PRES   REMARKS
CHARLOTTESVILL CLOUDY    40  34  79 CALM      30.48R
CULPEPER*      CLOUDY    43  34  70 SE3       30.51R

$$

VAZ055>057-181400-
NORTH AND CENTRAL PIEDMONT

CITY           SKY/WX    TMP DP  RH WIND       PRES   REMARKS
FREDERICKSBRG* CLOUDY    43  36  75 N6        30.50S
STAFFORD*      CLOUDY    42  35  78 E7        30.54S

$$

NCZ024-NYZ072-PAZ021-071-VAZ022-071-181400-
OTHER REGIONAL OBSERVATIONS

CITY           SKY/WX    TMP DP  RH WIND       PRES   REMARKS
NEW YORK CITY  CLOUDY    38  27  64 SE6       30.58R
PHILADELPHIA   CLOUDY    42  28  57 E8        30.53F
PITTSBURGH     CLOUDY    46  30  53 SE7       30.32S
ROANOKE        CLOUDY    41  34  76 SE5       30.46S
RICHMOND       CLOUDY    39  33  79 NE10      30.49F
RALEIGH        PTSUNNY   43  36  76 NE8       30.44S

$$

ANZ530>537-181400-
MARINE OBSERVATIONS

STATION/POSITION TIME  TEMP    WIND        PRES
                       AIR SEA DIR/SP/G
                 (UTC) (F)     (DEG/KT/KT) (MB)
THOMAS PT LIGHT  1300   40 52   30/  8/  9 1033.6R
BALT KEY BRIDGE  1300   40      80/  8/ 10 1033.3R
COVE POINT       1300   40      80/  8/ 10 1032.4F
LEWISETTA        1300   42 54   30/  5/  8 1032.4S
SOLOMONS ISLAND  1300      52                N/A
PINEY POINT      1300           80/  5/  7   N/A

$$




USA.gov is the U.S. government's official web portal to all federal, state and local government web resources and services.